#timestamp,LO_Frequency,Hit,StdDev 
1528815615.1,286047000.0,N
1528815635.9,286047000.1,N
1528815655.7,286047001.9,N
1528815675.5,286047001.9,N
1528815695.4,286047002.8,Y
1528815715.2,286047000.6,P
1528815735.1,286047000.7,P
1528815736.0,286047000.7,P
1528815755.8,286046998.5,Y
1528815775.6,286046996.6,P
1528815795.5,286046999.6,N
1528815815.3,286046996.9,N
1528815835.1,286046999.3,N
1528815855.9,286046996.7,N
1528815875.7,286046999.6,N
1528815895.6,286046999.4,N
1528815915.4,286046998.5,N
1528815935.2,286046998.8,N
1528815955.1,286046998.2,N
1528815956.0,286046998.2,N
1528815975.8,286046999.2,N
1528815995.6,286046997.0,N
1528816015.5,286046997.1,N
1528816035.3,286046997.1,N
1528816055.2,286046997.1,N
1528816075.9,286046997.0,N
1528816095.7,286046996.8,N
1528816115.6,286046995.2,Y
1528816135.4,286046998.9,P
1528816155.3,286046999.5,N
1528816175.1,286046998.4,N
1528816176.0,286046998.4,Y
1528816195.8,286046998.3,P
1528816215.7,286046998.9,P
1528816235.5,286046999.2,P
1528816255.4,286046999.4,N
1528816275.2,286046998.1,Y
1528816295.0,286047000.7,P
1528816295.9,286047000.7,N
1528816315.8,286047001.1,N
1528816335.6,286047000.8,N
1528816355.5,286047000.5,N
1528816375.3,286047000.5,N
1528816395.1,286047000.7,N
1528816415.9,286046999.1,N
1528816435.7,286046999.4,N
1528816455.5,286046998.5,N
1528816475.4,286046998.5,N
1528816495.2,286046999.1,N
1528816515.1,286046997.7,N
1528816516.0,286046997.7,N
1528816535.8,286046996.8,N
1528816555.6,286046998.8,N
1528816575.5,286047001.2,N
1528816595.3,286047000.8,N
1528816615.1,286047000.5,N
1528816635.9,286047000.1,N
1528816655.7,286046999.8,N
1528816675.6,286047001.4,N
1528816695.4,286047001.6,N
1528816715.2,286047001.9,N
1528816735.1,286047001.8,N
1528816736.0,286047001.8,N
1528816755.8,286046999.7,N
1528816775.7,286047002.3,N
1528816795.5,286047001.8,N
1528816815.3,286047002.7,N
1528816835.2,286047001.3,N
1528816885.0,286047001.7,E
1528816895.9,286047002.4,N
1528816915.7,286047000.9,P
1528816935.5,286046998.7,N
1528816955.4,286046998.7,N
1528816975.2,286046998.7,N
1528816995.0,286046999.1,N
1528816995.9,286046999.1,N
1528817015.8,286046999.1,N
1528817035.6,286046998.4,N
1528817055.5,286046998.8,N
1528817075.3,286047000.5,N
1528817095.1,286047000.2,N
1528817115.9,286047000.5,N
1528817135.7,286047000.2,N
1528817155.5,286046998.5,N
1528817175.4,286046999.1,N
1528817195.2,286046998.6,N
1528817215.1,286046998.1,N
1528817216.0,286046998.1,N
1528817235.8,286047000.6,N
1528817255.6,286047000.5,N
1528817275.5,286047000.0,N
1528817295.3,286047000.2,N
1528817315.1,286047000.5,N
1528817335.9,286047002.4,N
1528817355.7,286047001.9,N
1528817375.6,286047001.8,N
1528817395.4,286047002.4,N
1528817415.2,286047002.5,N
1528817435.1,286047002.6,N
1528817436.0,286047002.6,N
1528817455.8,286047001.6,N
1528817475.7,286047001.8,N
1528817495.5,286047002.0,N
1528817515.3,286047002.4,N
1528817535.2,286047002.3,N
1528817555.0,286047002.6,N
1528817555.9,286047002.6,N
1528817575.7,286047001.8,N
1528817595.6,286047001.4,N
1528817615.4,286047001.3,N
1528817635.3,286047002.0,N
1528817655.1,286047000.2,N
1528817675.8,286047000.6,N
1528817695.7,286047002.7,N
1528817715.5,286047000.5,N
1528817735.4,286047002.3,N
1528817755.2,286047002.6,N
1528817775.0,286047001.4,N
1528817775.9,286047001.4,N
1528817795.8,286047004.4,Y
1528817815.6,286047000.2,P
1528817835.5,286047002.4,P
1528817855.3,286047002.4,N
1528817875.1,286047002.5,N
1528817895.9,286047000.3,N
1528817915.7,286047000.2,N
1528817935.5,286047000.5,N
1528817955.4,286046999.7,N
1528817975.2,286046999.9,N
1528817995.0,286047001.0,N
1528817996.0,286047001.0,N
1528818015.8,286046999.8,N
1528818035.6,286047000.9,N
1528818055.5,286046998.7,N
1528818075.3,286047000.6,N
1528818095.1,286047000.0,N
1528818115.9,286047000.0,N
1528818135.7,286047002.2,N
1528818155.6,286047002.0,N
1528818175.4,286047001.9,N
1528818195.2,286047000.1,N
1528818215.1,286047000.0,N
1528818216.0,286047000.0,N
1528818235.8,286047001.0,N
1528818255.6,286047000.9,N
1528818275.5,286047000.7,N
1528818295.3,286047002.0,N
1528818315.2,286047001.6,N
1528818335.9,286047002.3,N
1528818355.7,286047002.1,N
1528818375.6,286047002.1,N
1528818395.4,286047004.4,Y
1528818415.2,286047001.5,P
1528818435.1,286047001.6,P
1528818436.0,286047001.6,P
1528818455.8,286046999.8,N
1528818475.7,286047001.9,N
1528818495.5,286047001.9,N
1528818515.3,286047001.7,N
1528818535.2,286047001.6,N
1528818555.0,286047001.9,Y
1528818555.9,286047001.9,P
1528818575.8,286047000.4,N
1528818595.6,286047002.4,P
1528818615.4,286047000.4,N
1528818635.3,286047000.0,N
1528818655.1,286047002.6,N
1528818675.8,286047002.7,N
1528818695.7,286047002.6,N
1528818715.5,286047002.7,N
1528818735.6,286047002.4,N
1528818755.4,286047000.2,N
1528818775.2,286046999.7,N
1528818795.1,286047002.3,N
1528818796.0,286047002.3,N
1528818815.8,286047000.0,N
1528818835.7,286047002.7,N
1528818855.5,286046999.8,N
1528818875.3,286047002.3,N
1528818895.2,286047001.4,N
1528818915.0,286047001.5,N
1528818915.9,286047001.5,N
1528818935.8,286047004.3,Y
1528818955.6,286046999.9,P
1528818975.4,286047000.0,N
1528818995.3,286046998.7,N
1528819015.1,286047000.8,N
1528819035.9,286047000.7,N
1528819055.7,286047000.5,N
1528819075.5,286047000.0,N
1528819095.4,286047002.3,N
1528819115.2,286046999.8,N
1528819135.0,286047000.3,N
1528819135.9,286047000.3,N
1528819155.8,286047000.3,N
1528819175.6,286046999.7,N
1528819195.5,286046999.7,N
